[[{"header":{"parameterUnit":"m.s-1","parameterCategory":1,"la1":30.2991,"la2":30.254,"lo1":-89.0895,"lo2":-89.0444,"dy":0.0017,"dx":0.0017,"nx":28,"ny":28,"refTime":"2023-09-23T09:00:00:Z","depth":0,"parameterNumber":2,"parameterNumberName":"U-component_of_WINDS"},"data":[0,0,0,0,0,0,0,0,0,0,0,0,0,0,0,0,0,0,0,0,0,0,0,0,0,0,0,0,0,0,0,0,0,0,0,0,0,0,0,0,0,0,0,0,0,0,0,0,0,0,0,0,0,0,0,0,0,0,-1.724,-1.724,0,-1.7237,-1.7237,-1.7237,-1.7183,-1.7181,-1.718,-1.7179,-1.7176,-1.7178,-1.7179,0,0,0,0,0,0,0,0,0,0,0,0,0,-1.72,-1.7201,-1.724,-1.724,-1.724,-1.7237,-1.7237,-1.7237,-1.7183,-1.7181,-1.718,-1.7178,-1.7176,-1.7178,-1.7179,0,0,0,0,0,0,0,0,0,0,0,0,0,-1.7209,-1.7201,-1.724,-1.7212,-1.721,-1.7237,-1.7237,-1.7237,-1.7183,-1.7181,-1.7179,-1.7177,-1.7176,-1.7177,-1.7179,-1.7232,0,0,-1.7185,-1.7186,0,0,0,0,0,0,0,0,-1.7209,-1.7211,-1.7216,-1.7214,-1.7212,-1.7208,-1.7222,-1.7235,-1.7184,-1.7193,-1.7179,-1.7176,-1.7189,-1.7189,-1.7193,-1.7232,-1.7232,-1.7185,-1.7186,-1.7187,-1.7187,0,0,0,0,0,0,0,-1.7208,-1.7211,-1.7239,-1.7217,-1.7214,-1.7201,-1.72,-1.7224,-1.7203,-1.7192,-1.7188,-1.7189,-1.7187,-1.7192,-1.7193,-1.7232,-1.7185,-1.7187,-1.7188,-1.7189,-1.7316,-1.7318,0,0,0,0,0,0,-1.7211,-1.721,-1.7239,-1.7239,-1.7205,-1.7203,-1.7202,-1.7211,-1.7202,-1.7199,-1.7191,-1.7186,-1.719,-1.7191,-1.7193,-1.7255,-1.7187,-1.7189,-1.719,-1.7313,-1.7316,-1.7319,0,0,0,0,0,0,-1.7211,-1.7214,-1.7239,-1.7223,-1.7226,-1.7206,-1.7217,-1.7212,-1.7217,-1.7201,-1.7197,-1.7199,-1.7188,-1.719,-1.7223,-1.7254,-1.719,-1.7191,-1.7311,-1.7314,-1.7317,-1.738,0,0,0,0,0,0,-1.721,-1.7214,-1.7234,-1.7224,-1.7227,-1.7269,-1.7219,-1.7214,-1.722,-1.7215,-1.7208,-1.7205,-1.7187,-1.7221,-1.7225,-1.7255,-1.7193,-1.7308,-1.7312,-1.7316,-1.7375,-1.7385,-1.7393,0,0,0,0,0,-1.7208,-1.7251,-1.7235,-1.7239,-1.7251,-1.7271,-1.7272,-1.725,-1.7223,-1.7243,-1.7233,-1.7205,-1.725,-1.7224,-1.7229,-1.726,-1.7306,-1.7311,-1.7316,-1.737,-1.7383,-1.7393,0,0,0,0,0,0,-1.7265,-1.725,-1.7231,-1.7273,-1.7274,-1.7262,-1.7286,-1.7263,-1.7272,-1.7266,-1.7238,-1.7237,-1.7275,-1.7271,-1.7243,-1.7312,-1.7273,-1.7279,-1.7313,-1.7325,-1.7334,-1.7334,-1.7194,0,0,0,0,0,-1.7283,-1.73,-1.7286,-1.7323,-1.7325,-1.7306,-1.7313,-1.7296,-1.7296,-1.7296,-1.7288,-1.729,-1.7304,-1.7314,-1.7326,-1.7374,-1.7372,-1.7398,-1.7407,-1.7415,-1.7421,-1.7446,-1.7458,-1.7335,-1.7335,-1.7335,0,0,-1.7319,-1.7312,-1.7325,-1.7335,-1.7333,-1.7353,-1.7306,-1.7328,-1.7342,-1.73,-1.733,-1.7325,-1.7325,-1.7365,-1.7383,-1.7363,-1.7454,-1.7421,-1.7428,-1.7429,-1.7453,-1.7464,-1.7475,-1.7339,-1.7338,-1.7338,0,0,-1.7394,-1.7391,-1.7422,-1.7422,-1.7421,-1.7408,-1.7415,-1.7407,-1.7402,-1.7432,-1.7401,-1.7418,-1.7443,-1.7444,-1.7448,-1.7526,-1.7501,-1.753,-1.7579,-1.7604,-1.7614,-1.7622,-1.765,-1.7661,-1.7536,-1.7536,-1.7536,0,-1.7439,-1.7466,-1.7441,-1.7466,-1.7471,-1.7434,-1.7466,-1.7467,-1.747,-1.7475,-1.7452,-1.7484,-1.7481,-1.7522,-1.7541,-1.7545,-1.7554,-1.7531,-1.7614,-1.7623,-1.763,-1.7657,-1.7667,-1.754,-1.7539,-1.7539,-1.7539,0,-1.7522,-1.7541,-1.7567,-1.7571,-1.7579,-1.7607,-1.7587,-1.7599,-1.7582,-1.7571,-1.7603,-1.7599,-1.761,-1.7618,-1.7601,-1.7657,-1.7645,-1.7619,-1.758,-1.7646,-1.767,-1.768,-1.7545,-1.7544,-1.7543,-1.7542,0,0,-1.7632,-1.7623,-1.7632,-1.7634,-1.763,-1.7645,-1.7672,-1.7683,-1.7694,-1.7697,-1.772,-1.7742,-1.7719,-1.7723,-1.7706,-1.7728,-1.7791,-1.77,-1.7699,-1.7717,-1.7853,-1.7873,-1.7885,-1.7775,-1.7776,-1.7778,-1.7853,0,-1.7705,-1.775,-1.7729,-1.7777,-1.7795,-1.776,-1.7784,-1.7784,-1.7776,-1.779,-1.7781,-1.7798,-1.7765,-1.7767,-1.7788,-1.7779,-1.7818,-1.7773,-1.7796,-1.7797,-1.7797,-1.7898,-1.7918,-1.799,-1.7863,-1.7864,-1.7865,0,-1.7796,-1.7804,-1.7854,-1.7847,-1.7854,-1.7876,-1.7884,-1.7898,-1.7899,-1.7891,-1.7897,-1.7875,-1.7902,-1.7863,-1.79,-1.787,-1.7878,-1.7875,-1.7877,-1.7878,-1.7835,-1.7902,-1.8012,-1.8023,-1.788,-1.7879,-1.7878,0,-1.7873,-1.7895,-1.7928,-1.7931,-1.7924,-1.794,-1.7938,-1.7936,-1.7945,-1.7952,-1.7957,-1.7968,-1.7975,-1.7984,-1.7966,-1.7939,-1.8005,-1.7965,-1.8,-1.8001,-1.8016,-1.8015,-1.8129,-1.8021,-1.8021,-1.802,-1.802,0,-1.7957,-1.7989,-1.7962,-1.7983,-1.8017,-1.7993,-1.8029,-1.8023,-1.8022,-1.8041,-1.8012,-1.803,-1.8005,-1.8021,-1.8007,-1.804,-1.8043,-1.8038,-1.8034,-1.8041,-1.8042,-1.8046,-1.8041,-1.8023,-1.8023,-1.8022,-1.8022,0,-1.8048,-1.8032,-1.8065,-1.8056,-1.8055,-1.8081,-1.8074,-1.8092,-1.8082,-1.8106,-1.8111,-1.8095,-1.8112,-1.8095,-1.8112,-1.8103,-1.8147,-1.8136,-1.8147,-1.8144,-1.8181,-1.8178,-1.8301,-1.8316,-1.8198,-1.82,-1.8201,0,-1.8103,-1.8126,-1.812,-1.8131,-1.8131,-1.8148,-1.8156,-1.8134,-1.8144,-1.8146,-1.8165,-1.818,-1.8191,-1.8221,-1.8212,-1.8225,-1.8213,-1.8256,-1.8215,-1.8222,-1.8215,-1.8214,-1.8216,-1.8264,-1.8266,-1.8267,-1.8268,0,-1.8202,-1.8193,-1.8206,-1.8216,-1.8227,-1.8234,-1.8239,-1.825,-1.8226,-1.8239,-1.8257,-1.8266,-1.8283,-1.8299,-1.8309,-1.8307,-1.8284,-1.8281,-1.829,-1.8297,-1.8303,-1.8301,-1.817,-1.8278,-1.8277,-1.8276,-1.8276,-1.8275,-1.8277,-1.8297,-1.8296,-1.8311,-1.8313,-1.8318,-1.8335,-1.8327,-1.8342,-1.8354,-1.834,-1.8362,-1.8363,-1.8374,-1.8375,-1.8392,-1.8375,-1.8388,-1.8391,-1.8395,-1.84,-1.83,-1.8394,-1.8394,-1.8394,-1.8393,-1.8393,0,-1.8375,-1.8373,-1.8388,-1.8395,-1.8408,-1.8385,-1.8389,-1.8402,-1.8421,-1.8424,-1.8435,-1.8456,-1.8472,-1.8463,-1.8477,-1.8492,-1.8482,-1.8497,-1.8496,-1.8496,-1.8415,-1.8406,-1.8505,-1.8505,-1.8505,-1.8505,-1.8505,-1.8505,-1.8428,-1.846,-1.8451,-1.8484,-1.8482,-1.8503,-1.8508,-1.8513,-1.8515,-1.8539,-1.8552,-1.8546,-1.8545,-1.8558,-1.8572,-1.8569,-1.8575,-1.8594,-1.8588,-1.8512,-1.8501,-1.8491,-1.8482,-1.8595,-1.8596,-1.8667,-1.8667,-1.8668]},{"header":{"parameterUnit":"m.s-1","parameterCategory":1,"la1":30.2991,"la2":30.254,"lo1":-89.0895,"lo2":-89.0444,"dy":0.0017,"dx":0.0017,"nx":28,"ny":28,"refTime":"2023-09-23T09:00:00:Z","depth":0,"parameterNumber":3,"parameterNumberName":"V-component_of_WINDS"},"data":[0,0,0,0,0,0,0,0,0,0,0,0,0,0,0,0,0,0,0,0,0,0,0,0,0,0,0,0,0,0,0,0,0,0,0,0,0,0,0,0,0,0,0,0,0,0,0,0,0,0,0,0,0,0,0,0,0,0,3.5623,3.5622,0,3.56,3.5599,3.5599,3.5558,3.5557,3.5556,3.5555,3.5532,3.5532,3.5533,0,0,0,0,0,0,0,0,0,0,0,0,0,3.5632,3.5632,3.5623,3.5622,3.5622,3.56,3.5599,3.5599,3.5558,3.5557,3.5556,3.5555,3.5532,3.5532,3.5533,0,0,0,0,0,0,0,0,0,0,0,0,0,3.562,3.5632,3.5623,3.5599,3.5596,3.56,3.5599,3.5599,3.5558,3.5557,3.5556,3.5554,3.5532,3.5532,3.5533,3.5558,0,0,3.5533,3.5533,0,0,0,0,0,0,0,0,3.5621,3.562,3.5603,3.56,3.5598,3.558,3.5594,3.5585,3.5558,3.5573,3.5555,3.5554,3.5549,3.5548,3.5546,3.5557,3.5556,3.5533,3.5533,3.5533,3.5533,0,0,0,0,0,0,0,3.5622,3.5621,3.5614,3.5602,3.5599,3.559,3.5587,3.5592,3.5568,3.5571,3.5568,3.5566,3.5548,3.5546,3.5545,3.5555,3.5533,3.5533,3.5534,3.5534,3.5584,3.5586,0,0,0,0,0,0,3.5626,3.5622,3.5614,3.5613,3.5607,3.559,3.5587,3.5587,3.5568,3.5564,3.5567,3.5564,3.5547,3.5545,3.5545,3.5572,3.5533,3.5534,3.5534,3.5583,3.5585,3.5586,0,0,0,0,0,0,3.5626,3.5626,3.5615,3.5616,3.5614,3.5591,3.5592,3.5587,3.5586,3.5565,3.556,3.557,3.5546,3.5544,3.5555,3.557,3.5534,3.5534,3.5582,3.5584,3.5585,3.5627,0,0,0,0,0,0,3.5627,3.5626,3.5635,3.5617,3.5614,3.5625,3.5593,3.5588,3.5586,3.5582,3.5566,3.5562,3.5544,3.5554,3.5555,3.557,3.5534,3.558,3.5583,3.5585,3.5624,3.563,3.5635,0,0,0,0,0,3.5627,3.5648,3.5636,3.5635,3.5625,3.5626,3.5625,3.5604,3.5588,3.5596,3.5583,3.5563,3.5569,3.5556,3.5556,3.5571,3.5579,3.5582,3.5585,3.5621,3.5629,3.5635,0,0,0,0,0,0,3.5669,3.5645,3.5631,3.5647,3.5639,3.5619,3.563,3.5613,3.5609,3.5606,3.558,3.5577,3.559,3.5582,3.5568,3.5594,3.5571,3.5574,3.5599,3.5606,3.5611,3.5612,3.5534,0,0,0,0,0,3.568,3.5682,3.5662,3.5677,3.5674,3.5653,3.5653,3.5637,3.5628,3.5625,3.5612,3.5604,3.5604,3.5605,3.5604,3.5623,3.5619,3.5634,3.564,3.5644,3.5646,3.5655,3.5662,3.5595,3.5595,3.5595,0,0,3.5702,3.569,3.5693,3.5685,3.5677,3.5681,3.565,3.5655,3.5658,3.5626,3.5634,3.5625,3.5614,3.5629,3.5635,3.5623,3.5664,3.5648,3.5652,3.5651,3.5659,3.5665,3.5671,3.5597,3.5597,3.5596,0,0,3.5744,3.5736,3.5747,3.574,3.5729,3.5714,3.5717,3.5701,3.5693,3.5701,3.5677,3.568,3.5681,3.5674,3.5671,3.5712,3.5693,3.5713,3.5741,3.575,3.5755,3.576,3.5773,3.5778,3.5715,3.5715,3.5715,0,3.5774,3.5778,3.5756,3.5762,3.5759,3.5731,3.5742,3.5736,3.5725,3.5724,3.5711,3.5711,3.5702,3.5715,3.5725,3.5724,3.5726,3.5713,3.5756,3.576,3.5764,3.5777,3.5782,3.5718,3.5717,3.5717,3.5717,0,3.5814,3.5817,3.5828,3.5817,3.5816,3.5825,3.5805,3.5806,3.5792,3.5779,3.5788,3.5776,3.5772,3.5775,3.576,3.5785,3.5778,3.5761,3.5736,3.5773,3.5785,3.5789,3.5721,3.572,3.572,3.5719,0,0,3.588,3.5858,3.5862,3.5857,3.5842,3.5844,3.5853,3.5849,3.585,3.5844,3.585,3.5851,3.5836,3.5832,3.5817,3.5825,3.5857,3.5807,3.5806,3.5816,3.5883,3.5894,3.59,3.5845,3.5846,3.5847,3.5883,0,3.5918,3.5929,3.591,3.5927,3.5929,3.5903,3.591,3.5902,3.5891,3.5891,3.5879,3.588,3.586,3.5858,3.5865,3.5852,3.587,3.5849,3.585,3.585,3.5851,3.5907,3.5919,3.5954,3.5888,3.5888,3.5889,0,3.5963,3.5959,3.5975,3.596,3.596,3.5967,3.5961,3.5963,3.5954,3.5945,3.5941,3.5924,3.5931,3.5908,3.5917,3.5903,3.5903,3.5897,3.5898,3.5895,3.587,3.5905,3.5964,3.5969,3.5896,3.5895,3.5895,0,3.6008,3.6007,3.6016,3.6013,3.5996,3.6001,3.5994,3.5983,3.5982,3.5978,3.5977,3.5974,3.5972,3.597,3.5952,3.5937,3.5962,3.5939,3.5955,3.5955,3.596,3.5959,3.6019,3.5962,3.5962,3.5962,3.5962,0,3.6052,3.6062,3.6036,3.6042,3.6053,3.6032,3.6044,3.6034,3.6025,3.6029,3.6006,3.601,3.5987,3.5988,3.5974,3.5983,3.5983,3.5976,3.5971,3.5977,3.5977,3.5975,3.5971,3.5964,3.5963,3.5963,3.5963,0,3.6103,3.6086,3.6094,3.6077,3.6073,3.6082,3.6068,3.6073,3.6061,3.6065,3.6065,3.6046,3.6046,3.6029,3.6026,3.6016,3.6031,3.6023,3.6034,3.6031,3.6047,3.6045,3.6105,3.6112,3.6053,3.6054,3.6054,0,3.6131,3.6138,3.6122,3.6123,3.6117,3.6119,3.6117,3.6097,3.6096,3.6087,3.6092,3.6091,3.6089,3.6091,3.6077,3.6074,3.6065,3.6087,3.6065,3.6069,3.6064,3.6063,3.6063,3.6091,3.6091,3.6092,3.6093,0,3.6182,3.6173,3.6172,3.6168,3.6167,3.6163,3.6157,3.6159,3.6137,3.6138,3.6138,3.6136,3.6133,3.6132,3.6127,3.612,3.6102,3.61,3.6103,3.6108,3.6113,3.6109,3.6045,3.6098,3.6098,3.6097,3.6097,3.6097,3.6221,3.6226,3.6216,3.6215,3.6209,3.6205,3.6208,3.6197,3.6196,3.6192,3.618,3.6182,3.6173,3.6165,3.6159,3.616,3.615,3.6155,3.6156,3.6157,3.616,3.6114,3.616,3.616,3.6159,3.6159,3.6159,0,3.6269,3.6262,3.6261,3.6254,3.6254,3.6239,3.6232,3.6233,3.6235,3.6228,3.6226,3.6226,3.6225,3.6211,3.6208,3.6212,3.6204,3.6212,3.621,3.6209,3.617,3.6167,3.6218,3.6218,3.6218,3.6218,3.6218,3.6218,3.6294,3.6302,3.6293,3.6298,3.629,3.6291,3.6289,3.6285,3.6279,3.628,3.6279,3.627,3.626,3.6257,3.6255,3.6251,3.625,3.6261,3.6254,3.6217,3.6212,3.6206,3.6203,3.6261,3.6261,3.6292,3.6293,3.6293]}]]